Погода в Моздоке

Россия / Республика Северная Осетия — Алания     43°44′07″N   44°39′13″E
темп.,
°C
ветер,
м/с
пор.,
м/с
влажн.,
%
обл.,
%
осадки,
мм/ч
давл.,
гПа
погр.,
м
18 мая, ср
ср1800:00+14з3780100 0.1 1017213
03:00+14юз3379100 0.2 101765
06:00+14ююз1181100 0.0 101620
09:00+18вюв226044 0.0 1016773
12:00+21вюв445097 0.0 10131686
15:00+22в55472 0.0 10111707
18:00+20вюв610625 0.0 1011466
21:00+14вюв5117585 0.0 1012254
19 мая, чт
чт1900:00+11вюв34895 0.0 101173
03:00+11юв11901 0.0 101111
06:00+13з22830 0.0 101285
09:00+20зсз56644 0.0 1013810
12:00+22ссз545779 0.0 10131504
15:00+16сз81375100 0.1 1015523
18:00+14зсз71069100 0.0 1016807
21:00+11зсз51184100 0.6 1019766
20 мая, пт
пт2000:00+9з4989100 1.2 1020500
03:00+9юз3687100 1.8 1019223
06:00+10зюз5118399 0.1 1019695
09:00+14зсз101463100 0.3 10201686
12:00+15сз71163100 0.9 10201727
15:00+13юз81077100 2.2 1020810
18:00+13зюз5873100 0.3 1021395
21:00+10юз5108961 0.6 1022206
21 мая, сб
сб2100:00+10зюз5108497 0.0 1022225
03:00+9юз358433 0.0 102172
06:00+11з23785 0.0 1020109
09:00+17зюз47545 0.0 10191360
12:00+20з464481 0.0 10161643
15:00+22зюз344061 0.0 10141495
18:00+20зюз1255100 0.0 101328
21:00+17сз3552100 0.0 1014109
22 мая, вс
вс2200:00+13ююв3395100 1.7 101462
03:00+12ююв48945 1.7 1011162
06:00+14зюз12846 0.0 101171
09:00+20сз11567 0.0 1009433
12:00+22с31477 0.0 1008814
15:00+25всв33385 0.0 10061325
18:00+22св46574 0.0 1005145
21:00+16вюв36680 0.0 100586